Location: Morrison Observatory
(41.7012°N, 86.2315°W)
Time: 04:55:55
(UTC-04:00)

Daily predictions for brighter satellites

Satellite Brightness Start Highest point End
(mag) Time Altitude Azimuth Time Altitude Azimuth Time Altitude Azimuth
Lacrosse 5 3.1 00:06:02 10° NW 00:09:43 38° N 00:09:43 38° N
Cosmos 1934 Rocket 4.5 00:17:32 50° W 00:17:39 50° WNW 00:23:32 10° N
CZ-2C R/B 4.4 00:30:14 32° NW 00:30:14 32° NW 00:32:59 10° NNW
BREEZE M DEB (TANK) 4.3 00:27:57 10° WNW 00:36:35 37° N 00:36:54 36° N
Cosmos 1943 Rocket 3.1 00:32:26 10° NNW 00:36:08 44° NNW 00:36:08 44° NNW
H-2A R/B 4.4 00:45:23 21° NNE 00:45:23 21° NNE 00:47:04 10° N
USA 267 4.2 00:50:45 10° NE 00:56:51 43° NNW 01:02:57 10° W
Cosmos 1943 4.4 01:03:04 39° NNW 01:03:04 39° NNW 01:07:08 10° NNE
Cosmos 2369 Rocket 3.9 01:04:10 10° NW 01:07:06 27° WNW 01:07:06 27° WNW
CZ-2C R/B 4.3 01:17:27 10° N 01:21:05 28° NW 01:21:05 28° NW
ADEOS Rocket 3.9 01:17:02 10° NNE 01:21:59 45° NE 01:21:59 45° NE
USA 234 4.2 01:32:58 38° WNW 01:32:58 38° WNW 01:36:53 10° NW
CZ-4C R/B 4.3 01:29:46 18° WNW 01:31:53 22° NNW 01:36:37 10° NNE
Mayak 1.6 01:32:38 10° N 01:33:35 16° N 01:33:35 16° N
ATLAS 5 CENTAUR R/B 4.1 01:33:10 10° NW 01:35:41 24° WNW 01:35:41 24° WNW
SeaSat 1 4.5 01:48:48 23° NNW 01:48:48 23° NNW 01:50:40 10° NNW
Lacrosse 4 Rocket 4.5 02:03:08 10° NNE 02:04:55 12° NE 02:05:06 12° NE
CZ-2D R/B 4.1 02:43:59 10° NE 02:47:20 20° E 02:47:20 20° E
COSMOS 2406 4.3 02:50:43 39° NNW 02:50:43 39° NNW 02:54:47 10° NNE
Cosmos 1464 Rocket 4.4 02:53:39 60° N 02:53:39 60° N 02:58:43 10° N
SL-16 R/B 3.8 02:51:48 31° E 02:53:24 35° ENE 02:59:00 10° N
Cosmos 1980 Rocket 4.2 02:50:21 10° N 02:54:49 24° NE 02:58:11 14° E
Cosmos 1697 Rocket 3.7 02:52:14 10° N 02:57:34 40° ENE 02:57:47 40° ENE
Cosmos 2082 Rocket 3.1 03:06:40 42° ENE 03:06:40 42° ENE 03:10:51 10° NE
Nadezhda 4 Rocket 4.1 03:08:30 10° N 03:13:59 70° NNE 03:13:59 70° NNE
Cosmos 1656 4.4 03:18:05 10° NNW 03:22:01 46° NNW 03:22:01 46° NNW
Resurs 1-4 Rocket 3.0 03:19:05 10° NNE 03:23:32 42° E 03:23:32 42° E
Cosmos 1634 Rocket 4.5 03:24:53 49° ESE 03:25:22 50° E 03:31:23 10° NNE
Meteor 1-15 Rocket 4.4 03:26:09 10° N 03:31:38 75° NNE 03:31:38 75° NNE
IRS-P3 4.4 03:29:02 10° NNE 03:33:41 64° NE 03:33:41 64° NE
NPP 3.9 03:29:52 10° NNE 03:34:34 67° NE 03:34:34 67° NE
Cosmos 909 Rocket 4.1 03:29:09 10° NW 03:34:29 65° NW 03:34:29 65° NW
SL-08 R/B 4.0 03:37:48 51° N 03:37:48 51° N 03:41:34 10° N
Cosmos 1833 Rocket 2.8 03:41:36 67° NNW 03:41:36 67° NNW 03:46:40 10° NNE
CBERS-1 4.3 03:36:10 10° NNE 03:40:29 63° NNE 03:40:29 63° NNE
Cosmos 1025 Rocket 4.3 03:42:56 38° NNE 03:42:56 38° NNE 03:45:45 10° NNE
Lacrosse 4 Rocket 3.6 03:39:49 10° NNW 03:41:22 21° NNW 03:41:22 21° NNW
Cosmos 2026 Rocket 4.3 03:41:23 10° N 03:47:43 62° E 03:49:30 45° SE
Cosmos 1932 4.3 03:53:22 78° WSW 03:53:47 84° WNW 04:00:13 10° NNE
AQUA 4.2 03:54:05 10° N 03:58:01 59° NNW 03:58:01 59° NNW
Iridium 4 Rocket 3.9 04:00:48 45° N 04:00:48 45° N 04:04:00 10° N
Cosmos 1570 Rocket 4.0 04:00:10 79° E 04:00:10 79° E 04:05:22 10° NNE
Cosmos 2360 4.2 03:59:48 10° NNW 04:05:31 79° ENE 04:07:09 48° SE
Cosmos 1607 4.4 04:04:44 45° WNW 04:05:39 48° NW 04:11:56 10° NNE
Cosmos 2195 Rocket 4.3 04:02:50 10° N 04:09:01 79° W 04:09:49 67° SSW
Cosmos 1356 Rocket 4.0 04:10:57 52° NE 04:10:57 52° NE 04:14:12 10° NNE
Lacrosse 5 rocket 2.5 04:11:25 37° NNW 04:11:25 37° NNW 04:14:46 10° NNE
Cosmos 468 Rocket 4.1 04:12:08 64° SE 04:12:41 69° ESE 04:17:58 10° NNE
ARIANE 5 R/B 2.5 04:07:51 10° NNE 04:13:07 76° ESE 04:13:42 67° SSE
Spot 4 Rocket 3.9 04:08:43 10° NNE 04:13:54 80° ESE 04:14:23 72° SSE
NOAA 9 4.5 04:11:07 10° N 04:16:32 77° WNW 04:16:58 72° WSW
Cosmos 1066 Rocket 4.0 04:18:26 72° SW 04:18:58 80° W 04:24:24 10° N
USA 238 DEB 4.3 04:17:40 33° SSE 04:20:12 47° ESE 04:26:47 10° NE
USA 238 4.3 04:17:45 33° SSE 04:20:18 47° ESE 04:26:53 10° NE
Cosmos 1092 Rocket 4.3 04:16:16 10° NNW 04:22:09 45° W 04:22:10 45° W
Cosmos 2142 Rocket 4.4 04:22:36 58° SW 04:23:38 68° W 04:29:47 10° N
Cosmos 1655 Rocket 4.1 04:17:51 10° N 04:24:15 79° E 04:27:55 28° SSE
Helios 1A Rocket 3.0 04:23:08 10° NNE 04:27:19 72° ESE 04:27:22 72° ESE
CZ-2D R/B 2.3 04:23:03 10° N 04:28:16 51° WNW 04:28:39 50° W
CZ-2D R/B 3.9 04:24:26 10° NNE 04:28:28 55° E 04:28:56 51° SE
Cosmos 1726 Rocket 3.4 04:30:51 10° N 04:35:11 89° E 04:35:31 76° S
Cosmos 2298 Rocket 4.4 04:30:49 10° NNW 04:36:07 62° ENE 04:41:22 10° SSE
SL-16 R/B 3.0 04:36:53 39° W 04:36:54 39° W 04:42:44 10° NNW
Cosmos 1980 Rocket 2.2 04:33:42 10° NNW 04:39:10 55° WSW 04:39:51 51° SW
IRS-1D 3.9 04:34:25 10° N 04:39:23 48° WNW 04:40:00 45° W
Cosmos 1428 Rocket 4.4 04:34:55 10° NNW 04:41:04 68° W 04:43:29 38° SSW
Cosmos 1697 Rocket 4.0 04:36:30 10° NW 04:39:27 24° WNW 04:39:27 24° WNW
Okean 1-7 Rocket 4.1 04:46:30 43° WNW 04:46:30 43° WNW 04:50:43 10° N
H-2A R/B 4.3 04:44:58 10° NNW 04:47:33 19° WNW 04:47:33 19° WNW
ADEOS II 2.6 04:43:46 10° NNE 04:48:57 56° E 04:52:21 21° S
Cosmos 2082 Rocket 3.5 04:48:31 23° WNW 04:49:46 25° NW 04:54:25 10° N
Cosmos 1375 Rocket 4.5 04:47:30 38° SSW 04:50:15 89° ESE 04:56:51 10° NNE
Cosmos 841 Rocket 3.7 04:48:23 32° S 04:50:41 65° ESE 04:55:51 10° NNE
Cosmos 304 Rocket 4.5 04:50:21 36° WNW 04:50:51 37° WNW 04:55:20 10° N
ADEOS 3.5 04:45:59 10° NNE 04:51:13 85° WNW 04:53:17 38° SSW
SL-16 R/B 2.6 04:46:38 10° NNW 04:52:18 65° ENE 04:57:55 10° SE
UNKNOWN OBJECT B 2.6 04:49:39 10° N 04:53:30 73° WNW 04:53:49 68° WSW
Cosmos 2058 Rocket 2.9 04:52:04 10° N 04:56:30 77° W 04:58:13 37° S
Cosmos 2228 2.9 04:56:13 10° NNW 05:00:27 62° W 05:01:28 46° SSW
Cosmos 1606 Rocket 4.2 04:59:21 10° NNW 05:02:57 34° W 05:02:57 34° W
Resurs 1-4 Rocket 3.3 04:59:27 10° NNW 05:03:39 25° WNW 05:04:38 23° W
Meteor 1-22 Rocket 4.4 04:59:48 10° NNW 05:05:34 52° W 05:08:34 26° SSW
Cosmos 540 Rocket 4.2 05:02:53 17° S 05:06:41 51° ESE 05:11:40 10° NNE
Cosmos 2322 Rocket 2.2 05:02:09 10° NNW 05:07:50 82° ENE 05:13:26 10° SSE
ATLAS 3B R/B 2.8 05:03:31 26° SSW 05:07:53 82° ESE 05:14:52 10° NE
Cosmos 1626 Rocket 3.8 05:06:34 20° S 05:09:27 66° E 05:13:45 10° NNE
NOSS 3-2 (A) 3.7 05:10:13 21° SSW 05:14:10 62° ESE 05:20:32 10° NE
SJ 16-02 2.5 05:11:21 10° N 05:15:35 44° ENE 05:19:49 10° SE
Cosmos 1892 Rocket 4.3 05:15:29 32° W 05:16:20 35° WNW 05:20:23 10° N
Cosmos 292 Rocket 3.7 05:13:38 25° SSW 05:16:27 87° ESE 05:21:16 10° NNE
Cosmos 1763 Rocket 3.8 05:14:42 31° SW 05:16:59 52° WNW 05:22:12 10° N
Cosmos 1707 4.2 05:13:53 10° SSE 05:17:26 36° E 05:21:01 10° NNE
Cosmos 1842 3.6 05:16:46 38° WSW 05:17:41 46° W 05:21:31 10° N
Cosmos 1378 4.0 05:14:37 13° SSE 05:17:45 49° E 05:21:24 10° NNE
ATLAS CENTAUR R/B 3.7 05:17:14 10° NNW 05:21:06 29° NE 05:25:09 10° ESE
deb Kosmos-1763 4.5 05:22:46 35° WSW 05:23:53 47° WNW 05:27:32 10° N
USA 215 3.3 05:21:21 10° NE 05:27:55 76° SE 05:32:57 18° SW
CENTAUR R/B 4.4 05:24:24 10° SSE 05:29:01 24° ESE 05:34:04 10° ENE
Cosmos 1805 4.1 05:29:58 10° NNW 05:33:23 30° W 05:34:26 26° WSW
H-II Stage 2 4.4 05:30:23 14° SSW 05:34:12 28° SE 05:50:41 10° E
Cosmos 1953 2.2 05:30:22 10° N 05:34:27 81° W 05:38:30 10° S
Cosmos 44 3.7 05:31:36 10° NW 05:36:39 48° WSW 05:41:47 10° S
Cosmos 1937 Rocket 4.4 05:37:31 10° NW 05:41:49 27° W 05:45:29 13° SSW
Cosmos 1125 Rocket 3.7 05:39:24 10° NNW 05:44:45 78° ENE 05:50:02 10° SSE
Aureole 2 Rocket 2.7 05:43:49 10° NNW 05:47:39 75° ENE 05:51:12 10° SSE
Cosmos 2322 4.4 05:44:32 10° NNW 05:50:12 59° ENE 05:55:50 10° SE
Lacrosse 5 rocket 3.9 05:49:18 10° NW 05:51:01 12° NNW 05:52:43 10° N
PSLV R/B 4.1 05:49:55 18° SSW 05:51:32 31° SSE 05:54:15 10° E
ARIANE 5 R/B 4.4 05:48:40 10° NNW 05:51:34 15° WNW 05:54:03 11° W
Okean O Rocket 2.5 05:52:04 10° NNE 05:56:21 50° E 06:00:33 10° S
ERBS 3.1 05:55:23 11° SSW 05:58:27 47° SE 06:01:43 10° NE
Cosmos 1825 Rocket 3.8 05:55:12 10° S 05:59:29 72° E 06:03:49 10° NNE
Cosmos 1758 4.2 05:57:05 10° NNW 06:00:30 28° W 06:03:55 10° SSW
USA 267 4.3 05:56:14 10° ESE 06:02:28 49° NNE 06:08:43 10° NW
CRYOSAT 2 4.4 05:59:02 10° S 06:03:53 89° ENE 06:08:46 10° N
Cosmos 44 Rocket 3.9 06:00:54 10° NW 06:05:39 38° WSW 06:10:25 10° S
Cosmos 1244 Rocket 4.4 06:02:14 10° NNW 06:08:21 72° W 06:14:29 10° S
Cosmos 372 Rocket 4.0 06:03:28 10° NNW 06:08:37 60° WSW 06:13:41 10° S
Cosmos 1733 4.3 06:06:27 10° NNW 06:09:42 26° W 06:12:56 10° SSW
USA 238 DEB 4.4 06:05:08 11° WSW 06:11:15 40° NW 06:17:48 10° NNE
USA 238 4.4 06:05:12 11° WSW 06:11:21 41° NW 06:17:54 10° NNE
Meteor 2-5 Rocket 3.9 06:05:58 10° S 06:11:29 79° E 06:17:06 10° NNE
DNEPR-1 R/B 4.3 06:11:12 11° WSW 06:15:04 39° NW 06:19:28 10° NNE
PSLV R/B 4.2 06:15:10 10° N 06:19:01 35° WNW 06:22:49 10° SW
Cosmos 1745 Rocket 4.3 06:14:29 10° N 06:20:42 76° E 06:26:57 10° SSE
Cosmos 2360 Rocket 2.2 06:15:10 10° NNW 06:20:42 60° WSW 06:26:12 10° S
BREEZE-M R/B 4.4 06:18:51 10° W 06:22:35 44° N 06:29:58 10° ENE
S3M 4.0 06:17:49 10° S 06:23:57 89° E 06:30:06 10° N
Cosmos 1953 Rocket 3.6 06:21:03 10° S 06:25:32 84° W 06:30:01 10° N
Cosmos 2219 4.3 06:22:16 10° S 06:27:43 49° ESE 06:33:13 10° NE
BREEZE-M DEB (TANK) 4.0 06:24:54 10° WNW 06:31:57 26° WSW 06:34:55 10° S
